MyWebLog Booking Liste

 

Nyhetsmelding

Klubbkveld 25.11.2014

Det blir en spennende og innholdsrik klubbkveld tirsdag den 25. november.
Vi får besøk av 2 ansatte i Norges Luftsportsforbund, Fag- og avdelingssjef Motorflyseksjonen Santiago Amengual og NLFs Aktivitetskonsulent Tom Brien.

Tema for møtet vil bl.a. bli;

    - Orientering om nytt regelverk
    - Rekruttering og miljøutvikling i flyklubben

Tid: Tirsdag 25.11.2014, kl. 18.30
Sted: Sandmoen Kurs- og Øvingssenter (Sandmoen Brannstasjon)

Vel møtt!

Kopirett © 2014 Værnes Flyklubb. Alle rettigheter reservert.
Joomla! er fri programvare utgitt under GNU/GPL License.
 

METAR

ENVA 271850Z 09005KT CAVOK 02/M00 Q1019 NOSIG RMK WIND 670FT 15006KT

TAF ENVA 2718/2818 VRB07KT CAVOK PROB40 TEMPO 2720/2812 15015G25KT